TimeEDT,TemperatureF,Dew PointF,Humidity,Sea Level PressureIn,VisibilityMPH,Wind Direction,Wind SpeedMPH,Gust SpeedMPH,PrecipitationIn,Events,Conditions,WindDirDegrees,DateUTC
12:00 AM,53.6,50.0,88,30.35,10.0,East,5.8,-,N/A,,Scattered Clouds,100,2013-10-14 04:00:00
12:20 AM,53.6,48.2,82,30.35,10.0,Calm,Calm,-,N/A,,Clear,0,2013-10-14 04:20:00
12:40 AM,53.6,48.2,82,30.34,10.0,East,6.9,-,N/A,,Clear,90,2013-10-14 04:40:00
1:00 AM,53.6,48.2,82,30.34,10.0,East,3.5,-,N/A,,Clear,90,2013-10-14 05:00:00
1:20 AM,53.6,48.2,82,30.34,10.0,Calm,Calm,-,N/A,,Scattered Clouds,0,2013-10-14 05:20:00
1:40 AM,51.8,48.2,88,30.34,10.0,Calm,Calm,-,N/A,,Mostly Cloudy,0,2013-10-14 05:40:00
2:00 AM,51.8,48.2,88,30.34,10.0,Calm,Calm,-,N/A,,Scattered Clouds,0,2013-10-14 06:00:00
2:20 AM,51.8,50.0,94,30.34,10.0,Calm,Calm,-,N/A,,Clear,0,2013-10-14 06:20:00
2:40 AM,51.8,50.0,94,30.33,10.0,Calm,Calm,-,N/A,,Clear,0,2013-10-14 06:40:00
3:00 AM,51.8,48.2,88,30.33,10.0,Calm,Calm,-,N/A,,Clear,0,2013-10-14 07:00:00
3:20 AM,51.8,48.2,88,30.34,10.0,Calm,Calm,-,N/A,,Scattered Clouds,0,2013-10-14 07:20:00
3:40 AM,51.8,48.2,88,30.34,10.0,Calm,Calm,-,N/A,,Mostly Cloudy,0,2013-10-14 07:40:00
4:00 AM,51.8,48.2,88,30.34,10.0,Calm,Calm,-,N/A,,Overcast,0,2013-10-14 08:00:00
4:20 AM,51.8,48.2,88,30.35,10.0,Calm,Calm,-,N/A,,Overcast,0,2013-10-14 08:20:00
4:40 AM,51.8,48.2,88,30.35,7.0,Calm,Calm,-,N/A,,Overcast,0,2013-10-14 08:40:00
5:00 AM,51.8,50.0,94,30.35,10.0,Calm,Calm,-,N/A,,Overcast,0,2013-10-14 09:00:00
5:20 AM,51.8,50.0,94,30.35,10.0,Calm,Calm,-,N/A,,Mostly Cloudy,0,2013-10-14 09:20:00
5:40 AM,51.8,48.2,88,30.35,7.0,Calm,Calm,-,N/A,,Overcast,0,2013-10-14 09:40:00
6:00 AM,51.8,50.0,94,30.34,7.0,Calm,Calm,-,N/A,,Overcast,0,2013-10-14 10:00:00
6:20 AM,51.8,50.0,94,30.34,10.0,Calm,Calm,-,N/A,,Overcast,0,2013-10-14 10:20:00
6:40 AM,53.6,51.8,94,30.34,7.0,Calm,Calm,-,N/A,,Overcast,0,2013-10-14 10:40:00
7:00 AM,53.6,51.8,94,30.34,10.0,Calm,Calm,-,N/A,,Overcast,0,2013-10-14 11:00:00
7:20 AM,53.6,51.8,94,30.34,7.0,Calm,Calm,-,N/A,,Overcast,0,2013-10-14 11:20:00
7:40 AM,51.8,50.0,94,30.34,7.0,Calm,Calm,-,N/A,,Scattered Clouds,0,2013-10-14 11:40:00
8:00 AM,53.6,51.8,94,30.35,10.0,Calm,Calm,-,N/A,,Scattered Clouds,0,2013-10-14 12:00:00
8:20 AM,53.6,51.8,94,30.35,10.0,Calm,Calm,-,N/A,,Scattered Clouds,0,2013-10-14 12:20:00
8:40 AM,53.6,51.8,94,30.36,10.0,Calm,Calm,-,N/A,,Mostly Cloudy,0,2013-10-14 12:40:00
9:00 AM,55.4,51.8,88,30.36,10.0,Calm,Calm,-,N/A,,Mostly Cloudy,0,2013-10-14 13:00:00
9:20 AM,55.4,51.8,88,30.36,10.0,Calm,Calm,-,N/A,,Overcast,0,2013-10-14 13:20:00
9:40 AM,55.4,51.8,88,30.36,10.0,Calm,Calm,-,N/A,,Overcast,0,2013-10-14 13:40:00
10:00 AM,57.2,51.8,82,30.37,10.0,Calm,Calm,-,N/A,,Overcast,0,2013-10-14 14:00:00
10:20 AM,57.2,51.8,82,30.37,10.0,Calm,Calm,-,N/A,,Overcast,0,2013-10-14 14:20:00
10:40 AM,57.2,51.8,82,30.36,10.0,Calm,Calm,-,N/A,,Overcast,0,2013-10-14 14:40:00
11:00 AM,60.8,51.8,72,30.36,10.0,Calm,Calm,-,N/A,,Overcast,0,2013-10-14 15:00:00
11:20 AM,60.8,51.8,72,30.35,10.0,ENE,4.6,-,N/A,,Mostly Cloudy,70,2013-10-14 15:20:00
11:40 AM,60.8,51.8,72,30.34,10.0,Calm,Calm,-,N/A,,Mostly Cloudy,0,2013-10-14 15:40:00
12:00 PM,60.8,51.8,72,30.34,10.0,North,4.6,-,N/A,,Mostly Cloudy,350,2013-10-14 16:00:00
12:25 PM,60.8,51.8,72,30.33,10.0,Calm,Calm,-,N/A,,Scattered Clouds,0,2013-10-14 16:25:00
12:45 PM,62.6,51.8,68,30.32,10.0,Calm,Calm,-,N/A,,Clear,0,2013-10-14 16:45:00
1:05 PM,62.6,51.8,68,30.31,10.0,North,5.8,-,N/A,,Clear,360,2013-10-14 17:05:00
1:25 PM,64.4,51.8,64,30.30,10.0,Calm,Calm,-,N/A,,Clear,0,2013-10-14 17:25:00
1:45 PM,64.4,51.8,64,30.29,10.0,Calm,Calm,-,N/A,,Clear,0,2013-10-14 17:45:00
2:05 PM,64.4,51.8,64,30.28,10.0,NNW,4.6,-,N/A,,Clear,340,2013-10-14 18:05:00
2:25 PM,64.4,51.8,64,30.27,10.0,NNW,3.5,-,N/A,,Clear,330,2013-10-14 18:25:00
2:45 PM,66.2,51.8,60,30.27,10.0,NW,3.5,-,N/A,,Clear,310,2013-10-14 18:45:00
3:05 PM,66.2,53.6,64,30.26,10.0,Calm,Calm,-,N/A,,Clear,0,2013-10-14 19:05:00
3:25 PM,66.2,53.6,64,30.26,10.0,NNE,3.5,-,N/A,,Clear,30,2013-10-14 19:25:00
3:45 PM,66.2,51.8,60,30.26,10.0,ENE,3.5,-,N/A,,Clear,60,2013-10-14 19:45:00
4:05 PM,66.2,51.8,60,30.26,10.0,Calm,Calm,-,N/A,,Clear,0,2013-10-14 20:05:00
4:25 PM,68.0,51.8,56,30.25,10.0,North,3.5,-,N/A,,Clear,360,2013-10-14 20:25:00
4:45 PM,68.0,51.8,56,30.25,10.0,Calm,Calm,-,N/A,,Clear,0,2013-10-14 20:45:00
5:05 PM,68.0,55.4,64,30.26,10.0,Calm,Calm,-,N/A,,Clear,0,2013-10-14 21:05:00
5:25 PM,68.0,55.4,64,30.26,10.0,Calm,Calm,-,N/A,,Clear,0,2013-10-14 21:25:00
5:45 PM,66.2,55.4,68,30.26,10.0,Calm,Calm,-,N/A,,Clear,0,2013-10-14 21:45:00
6:05 PM,66.2,51.8,60,30.26,10.0,Calm,Calm,-,N/A,,Clear,0,2013-10-14 22:05:00
6:25 PM,64.4,55.4,73,30.26,10.0,Calm,Calm,-,N/A,,Clear,0,2013-10-14 22:25:00
6:45 PM,62.6,55.4,77,30.27,10.0,Calm,Calm,-,N/A,,Clear,0,2013-10-14 22:45:00
7:05 PM,60.8,55.4,82,30.27,10.0,Calm,Calm,-,N/A,,Clear,0,2013-10-14 23:05:00
7:25 PM,60.8,55.4,82,30.27,10.0,Calm,Calm,-,N/A,,Clear,0,2013-10-14 23:25:00
7:45 PM,60.8,55.4,82,30.28,10.0,Calm,Calm,-,N/A,,Clear,0,2013-10-14 23:45:00
8:05 PM,59.0,55.4,88,30.28,10.0,Calm,Calm,-,N/A,,Clear,0,2013-10-15 00:05:00
8:25 PM,59.0,53.6,82,30.28,10.0,Calm,Calm,-,N/A,,Clear,0,2013-10-15 00:25:00
8:45 PM,57.2,53.6,88,30.28,10.0,Calm,Calm,-,N/A,,Clear,0,2013-10-15 00:45:00
9:05 PM,57.2,53.6,88,30.28,10.0,Calm,Calm,-,N/A,,Clear,0,2013-10-15 01:05:00
9:25 PM,57.2,53.6,88,30.28,10.0,Calm,Calm,-,N/A,,Clear,0,2013-10-15 01:25:00
9:45 PM,55.4,53.6,94,30.28,10.0,Calm,Calm,-,N/A,,Clear,0,2013-10-15 01:45:00
10:05 PM,55.4,53.6,94,30.28,10.0,Calm,Calm,-,N/A,,Clear,0,2013-10-15 02:05:00
10:25 PM,55.4,53.6,94,30.28,10.0,Calm,Calm,-,N/A,,Clear,0,2013-10-15 02:25:00
10:45 PM,53.6,51.8,94,30.28,7.0,Calm,Calm,-,N/A,,Clear,0,2013-10-15 02:45:00
11:05 PM,55.4,51.8,88,30.28,10.0,Calm,Calm,-,N/A,,Clear,0,2013-10-15 03:05:00
11:25 PM,55.4,51.8,88,30.27,10.0,Calm,Calm,-,N/A,,Clear,0,2013-10-15 03:25:00
11:45 PM,53.6,51.8,94,30.27,10.0,Calm,Calm,-,N/A,,Clear,0,2013-10-15 03:45:00